• Join FlightAware (Why Join?)
  • Login
  • US Flag 
06:48PM EST


 

Airport Tracker/Info


-or-


 

Live Flight TrackerFlight Track Log ✈ EGF4300 ✈ 17-May-2013 ✈ KORD - KALO

Flight Track Log - Related Links

Times and Time Zones

All times are in EDT time to prevent confusion due to time zone crossing. See the EGF4300 flight status page for this flight to view local times or setup timezone preferences in your user account.

Time Position Orientation Groundspeed Altitude Reporting Facility
EDT Latitude Longitude Course Direction KTS MPH feet Rate Location/Type
09:22PM 42.0167 -87.9667 270° West 199 229 2,400  Level Chicago TRACON
09:24PM 41.9667 -88.2840 270° West  Level FlightAware Approximate
09:24PM 42.1328 -88.0614 329° Northwest 268 308 7,000  Level Chicago Center
09:25PM 41.9667 -88.4120 270° West  Level FlightAware Approximate
09:25PM 42.1606 -88.1478 293° West 268 308 10,200  Level Chicago Center
09:26PM 41.9667 -88.5400 270° West  Level FlightAware Approximate
09:26PM 42.1567 -88.2458 267° West 262 302 12,000  Level Chicago Center
09:27PM 41.9668 -88.6681 270° West  Level FlightAware Approximate
09:27PM 42.1539 -88.3711 268° West 280 322 14,400  Level Chicago Center
09:28PM 41.9667 -88.7879 270° West  Level FlightAware Approximate
09:29PM 42.1511 -88.4828 268° West 298 343 15,700  Level Chicago Center
09:31PM 42.1447 -88.7192 268° West 321 369 19,200 1,710 Climbing Chicago Center
09:32PM 42.1408 -88.8558 268° West 331 381 21,000 1,258 Climbing Chicago Center
09:33PM 42.1375 -88.9892 268° West 350 403 21,800 823 Climbing Chicago Center
09:34PM 42.1361 -89.1331 269° West 378 435 22,700 1,065 Climbing Chicago Center
09:35PM 42.1458 -89.2828 275° West 396 456 24,000 629 Climbing Chicago Center
09:36PM 42.1739 -89.4608 282° West 412 474 24,000  Level Chicago Center
09:37PM 42.1994 -89.6253 282° West 443 510 24,000  Level Chicago Center
09:38PM 42.2222 -89.7894 281° West 444 511 24,000  Level Chicago Center
09:39PM 42.2461 -89.9625 281° West 446 513 24,000  Level Chicago Center
09:40PM 42.2686 -90.1269 281° West 449 517 24,000  Level Chicago Center
09:41PM 42.2917 -90.2900 281° West 446 513 24,000  Level Chicago Center
09:42PM 42.3133 -90.4542 280° West 447 514 24,000  Level Chicago Center
09:43PM 42.3361 -90.6192 281° West 450 518 24,000  Level Chicago Center
09:44PM 42.3569 -90.7831 280° West 449 517 24,000  Level Chicago Center
09:45PM 42.3828 -90.9803 280° West 448 516 24,000  Level Chicago Center
09:46PM 42.4039 -91.1447 280° West 448 516 24,000 -634 Level Chicago Center
09:47PM 42.4247 -91.3081 280° West 444 511 22,700 -1,597 Descending Chicago Center
09:48PM 42.4436 -91.4650 279° West 428 493 20,700 -2,274 Descending Chicago Center
09:49PM 42.4628 -91.6158 280° West 411 473 18,000 -2,683 Descending Chicago Center
09:50PM 42.4808 -91.7644 279° West 400 460 15,200 -3,073 Descending Chicago Center
09:51PM 42.5006 -91.9272 279° West 368 423 11,700 -2,419 Descending Chicago Center
09:52PM 42.5150 -92.0531 279° West 353 406 10,200 -1,452 Descending Chicago Center
09:53PM 42.5275 -92.1575 279° West 314 361 8,700 -1,951 Descending Chicago Center
09:54PM 42.5392 -92.2600 279° West 290 334 6,200 -2,293 Descending Chicago Center
09:55PM 42.5792 -92.3422 303° West 273 314 4,000 -1,951 Descending Chicago Center
09:56PM 42.6206 -92.4172 307° West 261 300 2,200 -1,073 Descending Chicago Center
09:57PM 42.5986 -92.4575 234° Southwest 205 236 1,800 -435 Descending Chicago Center
09:58PM 42.5744 -92.4294 139° Southeast 148 170 1,300 -484 Descending Chicago Center